Punta Gorda, FL

3:54 AM EST on February 21, 2017 (GMT -0500)
Charlotte County

Weather History for KPGD - October, 2013

Change the Weather History Date:

Tuesday, October 29, 2013

  Actual Average Record
Temperature  
Mean Temperature 72 °F -  
Max Temperature 87 °F 81 °F 88 °F (1996)
Min Temperature 60 °F 61 °F 42 °F (2008)
Cooling Degree Days 7    
Growing Degree Days 22 (Base 50)    
Moisture  
Dew Point 63 °F    
Average Humidity 74    
Maximum Humidity 97    
Minimum Humidity 48    
Precipitation  
Precipitation 0.00 in - - ()
Sea Level Pressure  
Sea Level Pressure 30.18 in    
Wind  
Wind Speed 7 mph (ENE)    
Max Wind Speed 16 mph    
Max Gust Speed 21 mph    
Visibility 10 miles    
Events      
Averages and records for this station are not official NWS values.
T = Trace of Precipitation, MM = Missing Value Source: NWS Daily Summary

Daily Weather History Graph

Daily Weather History Graph

Search for Another Location

Airport or City:

Trip Planner

Search our weather history database for the weather conditions in past years. The results will help you decide how hot, cold, wet, or windy it might be!

Date:

Astronomy

Oct. 29, 2013 Rise Set
Actual Time 7:35 AM EDT 6:46 PM EDT
Civil Twilight 7:12 AM EDT 7:10 PM EDT
Nautical Twilight 6:44 AM EDT 7:38 PM EDT
Astronomical Twilight 6:17 AM EDT 8:05 PM EDT
Moon 2:51 AM EDT (10/29) 3:36 PM EDT (10/29)
Length of Visible Light 11h 58m
Length of Day
11h 10m
Waning Crescent, 25% of the Moon is Illuminated
Oct 29
Waning Crescent
Nov 3
New
Nov 10
First Quarter
Nov 17
Full
Nov 25
Last Quarter

Hourly Weather History & Observations

Time (EDT) Temp. Heat Index Dew Point Humidity Pressure Visibility Wind Dir Wind Speed Gust Speed Precip Events Conditions
12:53 AM 64.9 °F - 63.0 °F 93% 30.18 in 10.0 mi NE 5.8 mph - N/A   Clear
1:53 AM 64.0 °F - 62.1 °F 93% 30.17 in 10.0 mi NE 4.6 mph - N/A   Clear
2:53 AM 63.0 °F - 61.0 °F 93% 30.17 in 10.0 mi NE 5.8 mph - N/A   Clear
3:53 AM 62.1 °F - 60.1 °F 93% 30.15 in 10.0 mi NE 3.5 mph - N/A   Clear
4:53 AM 62.1 °F - 60.1 °F 93% 30.16 in 10.0 mi NE 5.8 mph - N/A   Clear
5:53 AM 61.0 °F - 60.1 °F 97% 30.18 in 10.0 mi NNE 5.8 mph - N/A   Clear
6:53 AM 61.0 °F - 59.0 °F 93% 30.19 in 9.0 mi NE 4.6 mph - N/A   Clear
7:53 AM 60.1 °F - 59.0 °F 96% 30.21 in 7.0 mi NE 3.5 mph - N/A   Clear
8:53 AM 66.0 °F - 62.1 °F 87% 30.22 in 10.0 mi NE 9.2 mph - N/A   Clear
9:53 AM 73.0 °F - 64.0 °F 73% 30.23 in 10.0 mi NE 10.4 mph - N/A   Clear
10:53 AM 79.0 °F - 64.9 °F 62% 30.23 in 10.0 mi ENE 11.5 mph - N/A   Clear
11:53 AM 82.0 °F 83.8 °F 64.9 °F 56% 30.22 in 10.0 mi ENE 12.7 mph 19.6 mph N/A   Partly Cloudy
12:53 PM 84.0 °F 85.8 °F 64.9 °F 53% 30.20 in 10.0 mi East 12.7 mph 20.7 mph N/A   Partly Cloudy
1:53 PM 84.9 °F 86.6 °F 64.9 °F 51% 30.17 in 10.0 mi ENE 13.8 mph 19.6 mph N/A   Scattered Clouds
2:53 PM 84.9 °F 85.9 °F 63.0 °F 48% 30.14 in 10.0 mi ENE 13.8 mph - N/A   Scattered Clouds
3:53 PM 84.0 °F 84.9 °F 63.0 °F 49% 30.13 in 10.0 mi ENE 11.5 mph - N/A   Scattered Clouds
4:53 PM 84.9 °F 85.9 °F 63.0 °F 48% 30.13 in 10.0 mi ENE 16.1 mph 20.7 mph N/A   Scattered Clouds
5:53 PM 82.0 °F 83.0 °F 62.1 °F 51% 30.14 in 10.0 mi East 12.7 mph - N/A   Partly Cloudy
6:53 PM 78.1 °F - 62.1 °F 58% 30.16 in 10.0 mi East 6.9 mph - N/A   Scattered Clouds
7:53 PM 75.9 °F - 63.0 °F 64% 30.18 in 10.0 mi ENE 8.1 mph - N/A   Mostly Cloudy
8:53 PM 73.0 °F - 64.0 °F 73% 30.19 in 10.0 mi East 6.9 mph - N/A   Clear
9:53 PM 70.0 °F - 64.0 °F 81% 30.21 in 10.0 mi ENE 6.9 mph - N/A   Clear
10:53 PM 68.0 °F - 64.0 °F 87% 30.22 in 10.0 mi East 5.8 mph - N/A   Clear
11:53 PM 66.0 °F - 63.0 °F 90% 30.22 in 10.0 mi NE 4.6 mph - N/A   Clear